Clarksville, TN

8:55 PM CDT on March 28, 2017 (GMT -0500)
Outlaw

Weather History for KCKV - March, 2013

Change the Weather History Date:

Monday, March 11, 2013

  Actual Average Record
Temperature  
Mean Temperature 47 °F 47 °F  
Max Temperature 55 °F 59 °F 83 °F (1990)
Min Temperature 38 °F 36 °F 20 °F (1980)
Degree Days  
Heating Degree Days 18    
Month to date heating degree days 256  
Since 1 July heating degree days 3173  
Cooling Degree Days 0    
Month to date cooling degree days 0  
Year to date cooling degree days  
Moisture  
Dew Point 42 °F    
Average Humidity 79    
Maximum Humidity 96    
Minimum Humidity 62    
Precipitation  
Precipitation 0.98 in 0.11 in 1.26 in (1952)
Month to date precipitation 2.38 1.26  
Year to date precipitation 8.74  
Sea Level Pressure  
Sea Level Pressure 29.84 in    
Wind  
Wind Speed 10 mph (WSW)    
Max Wind Speed 21 mph    
Max Gust Speed 26 mph    
Visibility 8 miles    
Events Rain    
T = Trace of Precipitation, MM = Missing Value Source: NWS Daily Summary

Daily Weather History Graph

Daily Weather History Graph

Search for Another Location

Airport or City:

Trip Planner

Search our weather history database for the weather conditions in past years. The results will help you decide how hot, cold, wet, or windy it might be!

Date:

Astronomy

Mar. 11, 2013 Rise Set
Actual Time 7:05 AM CDT 6:53 PM CDT
Civil Twilight 6:40 AM CDT 7:19 PM CDT
Nautical Twilight 6:10 AM CDT 7:49 PM CDT
Astronomical Twilight 5:40 AM CDT 8:19 PM CDT
Moon 6:40 AM CDT (3/11) 7:03 PM CDT (3/11)
Length of Visible Light 12h 39m
Length of Day
11h 47m
Waning Crescent, 0% of the Moon is Illuminated
Mar 11
Waning Crescent
Mar 11
New
Mar 19
First Quarter
Mar 27
Full
Apr 2
Last Quarter

Hourly Weather History & Observations

Time (CDT) Temp. Windchill Dew Point Humidity Pressure Visibility Wind Dir Wind Speed Gust Speed Precip Events Conditions
12:31 AM 55.4 °F - 53.6 °F 94% 29.81 in 3.0 mi WSW 6.9 mph - 0.11 in Rain Rain
12:52 AM 55.0 °F - 53.1 °F 93% 29.79 in 4.0 mi WSW 10.4 mph 18.4 mph 0.16 in Rain Rain
1:06 AM 55.4 °F - 51.8 °F 88% 29.79 in 4.0 mi WSW 8.1 mph 17.3 mph 0.04 in Rain Rain
1:27 AM 53.6 °F - 51.8 °F 94% 29.81 in 2.5 mi WSW 15.0 mph 23.0 mph 0.11 in Rain Rain
1:35 AM 53.6 °F - 51.8 °F 94% 29.80 in 5.0 mi WSW 10.4 mph 23.0 mph 0.12 in Rain Light Rain
1:52 AM 53.1 °F - 51.1 °F 93% 29.81 in 4.0 mi WSW 10.4 mph - 0.16 in Rain Rain
2:06 AM 53.6 °F - 51.8 °F 94% 29.80 in 2.5 mi SW 4.6 mph - 0.06 in Rain Heavy Rain
2:20 AM 51.8 °F - 51.8 °F 100% 29.80 in 4.0 mi SW 8.1 mph - 0.12 in Rain Rain
2:52 AM 52.0 °F - 50.0 °F 93% 29.80 in 3.0 mi SSW 5.8 mph - 0.20 in Rain Rain
3:52 AM 51.1 °F - 50.0 °F 96% 29.80 in 3.0 mi SSW 6.9 mph - 0.19 in Rain Rain
5:10 AM 51.8 °F - 48.2 °F 88% 29.78 in 2.5 mi SW 8.1 mph - 0.09 in Rain Heavy Rain
5:16 AM 50.0 °F - 48.2 °F 94% 29.78 in 3.0 mi SSW 6.9 mph - 0.10 in Rain Rain
5:31 AM 50.0 °F - 48.2 °F 94% 29.78 in 3.0 mi SSW 5.8 mph - 0.16 in Rain Heavy Rain
5:39 AM 50.0 °F - 48.2 °F 94% 29.79 in 2.5 mi SSW 9.2 mph - 0.19 in Rain Rain
5:47 AM 50.0 °F - 48.2 °F 94% 29.78 in 3.0 mi South 6.9 mph - 0.21 in Rain Rain
5:52 AM 50.0 °F - 48.9 °F 96% 29.78 in 4.0 mi South 5.8 mph - 0.22 in Rain Rain
6:32 AM 50.0 °F - 48.2 °F 94% 29.79 in 10.0 mi WSW 10.4 mph - 0.06 in Rain Light Rain
6:39 AM 50.0 °F - 46.4 °F 87% 29.77 in 10.0 mi West 11.5 mph - 0.06 in   Overcast
6:48 AM 48.2 °F - 44.6 °F 87% 29.78 in 10.0 mi WSW 9.2 mph - 0.06 in   Overcast
6:52 AM 48.0 °F - 44.1 °F 86% 29.78 in 10.0 mi WSW 11.5 mph - 0.06 in Rain Light Rain
7:34 AM 46.4 °F 42.4 °F 42.8 °F 87% 29.79 in 10.0 mi SW 8.1 mph - 0.00 in   Overcast
7:52 AM 46.9 °F - 42.1 °F 83% 29.78 in 10.0 mi SW 8.1 mph - 0.00 in   Overcast
8:11 AM 46.4 °F 42.9 °F 42.8 °F 87% 29.78 in 10.0 mi SW 6.9 mph - N/A   Overcast
8:52 AM 46.9 °F - 43.0 °F 86% 29.79 in 10.0 mi WSW 8.1 mph - N/A   Unknown
9:02 AM 46.4 °F 41.1 °F 42.8 °F 87% 29.80 in 10.0 mi SW 11.5 mph - N/A   Mostly Cloudy
9:25 AM 48.2 °F - 42.8 °F 82% 29.82 in 10.0 mi WSW 12.7 mph 20.7 mph N/A   Overcast
9:52 AM 46.9 °F - 41.0 °F 80% 29.78 in 10.0 mi SW 10.4 mph 23.0 mph N/A   Overcast
10:35 AM 44.6 °F 38.4 °F 39.2 °F 81% 29.82 in 10.0 mi West 12.7 mph - N/A   Overcast
10:52 AM 44.1 °F 37.1 °F 39.0 °F 82% 29.83 in 10.0 mi West 15.0 mph - N/A   Overcast
11:30 AM 44.6 °F 39.2 °F 39.2 °F 81% 29.82 in 10.0 mi West 10.4 mph 19.6 mph N/A   Overcast
11:52 AM 43.0 °F 34.8 °F 37.9 °F 82% 29.83 in - West 18.4 mph 23.0 mph N/A   Overcast
12:06 PM 41.0 °F 33.1 °F 37.4 °F 87% 29.83 in 8.0 mi West 15.0 mph - N/A   Overcast
12:15 PM 42.8 °F 36.6 °F 37.4 °F 81% 29.83 in 8.0 mi West 11.5 mph - N/A   Overcast
12:52 PM 42.1 °F 33.9 °F 36.0 °F 79% 29.85 in 10.0 mi West 17.3 mph 23.0 mph N/A   Overcast
1:52 PM 44.1 °F 35.9 °F 34.0 °F 68% 29.83 in 10.0 mi WSW 19.6 mph 26.5 mph N/A   Overcast
2:52 PM 44.1 °F 37.7 °F 33.1 °F 65% 29.83 in 10.0 mi WSW 12.7 mph - N/A   Overcast
3:52 PM 43.0 °F 37.7 °F 32.0 °F 65% 29.85 in 10.0 mi West 9.2 mph - N/A   Overcast
4:52 PM 42.1 °F 34.9 °F 32.0 °F 67% 29.87 in 10.0 mi WNW 13.8 mph - N/A   Overcast
5:52 PM 42.1 °F 34.5 °F 30.9 °F 65% 29.89 in 10.0 mi West 15.0 mph 21.9 mph N/A   Mostly Cloudy
6:52 PM 41.0 °F 35.2 °F 30.0 °F 65% 29.94 in 10.0 mi West 9.2 mph - N/A   Overcast
7:52 PM 39.9 °F 32.9 °F 30.0 °F 68% 29.96 in 10.0 mi West 11.5 mph - N/A   Overcast
8:52 PM 39.9 °F 34.5 °F 30.0 °F 68% 29.97 in 10.0 mi West 8.1 mph - N/A   Overcast
9:52 PM 39.9 °F - 30.9 °F 70% 29.99 in 10.0 mi Calm Calm - N/A   Overcast
10:05 PM 39.2 °F 35.9 °F 30.2 °F 70% 29.98 in 10.0 mi West 4.6 mph - N/A   Overcast
10:41 PM 39.2 °F 34.2 °F 30.2 °F 70% 29.99 in 10.0 mi West 6.9 mph - N/A   Overcast
10:52 PM 39.0 °F 34.8 °F 30.9 °F 73% 30.00 in 10.0 mi West 5.8 mph - N/A   Overcast
11:52 PM 39.0 °F 32.8 °F 30.0 °F 70% 30.01 in 10.0 mi WNW 9.2 mph - N/A   Overcast